This is the latest recevied weather packets stored in our database for station/object OE3PDB-4. If no packets are shown the sender has not sent any weather packets the latest 1 day(s).
| Time | Temp. | Humidity | Pressure | Rain* | Wind** | Luminosity | Snow |
|---|---|---|---|---|---|---|---|
| 1778001000 | 23.33° C | 38% | 1005.1 hPa | 0 mm | 0 m/s | - | - |
| 1778000400 | 23.33° C | 38% | 1005.3 hPa | 0 mm | 0 m/s | - | - |
| 1777999800 | 23.89° C | 38% | 1005.4 hPa | 0 mm | 0 m/s | - | - |
| 1777999200 | 23.89° C | 37% | 1005.4 hPa | 0 mm | 0 m/s | - | - |
| 1777998600 | 23.89° C | 36% | 1005.4 hPa | 0 mm | 0 m/s | - | - |
| 1777998000 | 24.44° C | 36% | 1005.4 hPa | 0 mm | 0.89 m/s, 180° | - | - |
| 1777997400 | 25° C | 35% | 1005.4 hPa | 0 mm | 0.89 m/s, 202° | - | - |
| 1777996800 | 25.56° C | 34% | 1005.5 hPa | 0 mm | 0 m/s | - | - |
| 1777996200 | 26.11° C | 34% | 1005.5 hPa | 0 mm | 0.89 m/s, 180° | - | - |
| 1777995600 | 26.11° C | 34% | 1005.4 hPa | 0 mm | 0 m/s | - | - |
| 1777995000 | 26.11° C | 32% | 1005.4 hPa | 0 mm | 0 m/s | - | - |
| 1777994400 | 26.67° C | 31% | 1005.5 hPa | 0 mm | 1.79 m/s, 157° | - | - |
| 1777993800 | 27.22° C | 29% | 1005.5 hPa | 0 mm | 0 m/s | - | - |
| 1777993200 | 28.33° C | 29% | 1005.5 hPa | 0 mm | 0 m/s | - | - |
| 1777992600 | 28.89° C | 28% | 1005.4 hPa | 0 mm | 0 m/s | - | - |
| 1777992000 | 28.89° C | 28% | 1005.4 hPa | 0 mm | 0 m/s | - | - |
| 1777991400 | 28.89° C | 27% | 1005.4 hPa | 0 mm | 0.89 m/s, 202° | - | - |
| 1777990800 | 28.89° C | 28% | 1005.6 hPa | 0 mm | 0 m/s | - | - |
| 1777990200 | 28.89° C | 28% | 1005.8 hPa | 0 mm | 0 m/s | - | - |
| 1777989600 | 28.89° C | 27% | 1005.8 hPa | 0 mm | 0.89 m/s, 157° | - | - |
| 1777989000 | 29.44° C | 27% | 1005.9 hPa | 0 mm | 1.34 m/s, 180° | - | - |
| 1777988400 | 29.44° C | 27% | 1005.9 hPa | 0 mm | 0 m/s | - | - |
| 1777987800 | 28.89° C | 26% | 1006.1 hPa | 0 mm | 0.45 m/s, 180° | - | - |
| 1777987200 | 28.89° C | 26% | 1006.2 hPa | 0 mm | 0 m/s | - | - |
| 1777986600 | 28.89° C | 26% | 1006.4 hPa | 0 mm | 0 m/s | - | - |
* Rain latest hour (hover to see other rain measurements)
** Current wind speed in m/s (hover to see current wind gust speed)